Centralia, IL

12:32 AM CST on December 04, 2016 (GMT -0600)
Centralia Municipal

Weather History for KENL - January, 2014

Change the Weather History Date:

Tuesday, January 7, 2014

  Actual Average (KSLO) Record (KSLO)
Temperature  
Mean Temperature 4 °F -  
Max Temperature 19 °F 37 °F 68 °F (2008)
Min Temperature -10 °F 19 °F -11 °F (2014)
Degree Days  
Heating Degree Days 61    
Moisture  
Dew Point -3 °F    
Average Humidity 68    
Maximum Humidity 79    
Minimum Humidity 57    
Precipitation  
Precipitation 0.00 in - - ()
Sea Level Pressure  
Sea Level Pressure 30.37 in    
Wind  
Wind Speed 8 mph (South)    
Max Wind Speed 16 mph    
Max Gust Speed 21 mph    
Visibility 10 miles    
Events      
Averages and records for this station are not official NWS values.
T = Trace of Precipitation, MM = Missing Value Source: NWS Daily Summary

Daily Weather History Graph

Daily Weather History Graph

Search for Another Location

Airport or City:

Trip Planner

Search our weather history database for the weather conditions in past years. The results will help you decide how hot, cold, wet, or windy it might be!

Date:

Astronomy

Jan. 07, 2014 Rise Set
Actual Time 7:14 AM CST 4:51 PM CST
Civil Twilight 6:44 AM CST 5:20 PM CST
Nautical Twilight 6:11 AM CST 5:53 PM CST
Astronomical Twilight 5:39 AM CST 6:25 PM CST
Moon 11:08 AM CST (1/7) No Moon Set
Length of Visible Light 10h 36m
Length of Day
9h 37m
Waxing Crescent, 46% of the Moon is Illuminated
Jan 7
Waxing Crescent
Jan 7
First Quarter
Jan 15
Full
Jan 23
Last Quarter
Jan 30
New

Hourly Weather History & Observations

Time (CST) Temp. Windchill Dew Point Humidity Pressure Visibility Wind Dir Wind Speed Gust Speed Precip Events Conditions
12:15 AM -10.3 °F -26.7 °F -17.9 °F 69% 30.48 in 10.0 mi SW 8.1 mph - N/A   Clear
12:35 AM -10.3 °F -25.4 °F -18.2 °F 68% 30.47 in 10.0 mi SW 6.9 mph - N/A   Clear
12:55 AM -9.4 °F -25.6 °F -17.5 °F 68% 30.47 in 10.0 mi SW 8.1 mph - N/A   Clear
1:15 AM -10.7 °F -24.2 °F -18.6 °F 68% 30.47 in 10.0 mi SW 5.8 mph - N/A   Clear
1:35 AM -10.8 °F -24.4 °F -18.4 °F 69% 30.47 in 10.0 mi SW 5.8 mph - N/A   Clear
1:55 AM -10.7 °F -25.8 °F -17.9 °F 71% 30.47 in 10.0 mi SW 6.9 mph - N/A   Clear
2:15 AM -9.4 °F -25.6 °F -16.6 °F 71% 30.47 in 10.0 mi SW 8.1 mph - N/A   Clear
2:35 AM -7.8 °F -22.3 °F -15.5 °F 69% 30.47 in 10.0 mi SSW 6.9 mph - N/A   Clear
2:55 AM -8.7 °F -23.4 °F -16.1 °F 70% 30.48 in 10.0 mi SSW 6.9 mph - N/A   Clear
3:15 AM -8.7 °F -23.4 °F -15.9 °F 71% 30.47 in 10.0 mi SSW 6.9 mph - N/A   Clear
3:35 AM -8.5 °F -23.2 °F -15.7 °F 71% 30.46 in 10.0 mi SSW 6.9 mph - N/A   Clear
3:55 AM -8.1 °F -21.2 °F -15.5 °F 70% 30.46 in 10.0 mi SSW 5.8 mph - N/A   Clear
4:15 AM -8.7 °F -20.0 °F -15.9 °F 71% 30.46 in 10.0 mi SSW 4.6 mph - N/A   Clear
4:35 AM -8.5 °F -23.2 °F -15.3 °F 72% 30.47 in 10.0 mi SSW 6.9 mph - N/A   Clear
4:55 AM -7.8 °F -23.6 °F -15.2 °F 70% 30.47 in 10.0 mi SSW 8.1 mph - N/A   Clear
5:15 AM -8.9 °F -26.2 °F -15.7 °F 72% 30.46 in 10.0 mi SSW 9.2 mph - N/A   Clear
5:35 AM -6.9 °F -22.5 °F -14.3 °F 70% 30.46 in 10.0 mi SSW 8.1 mph - N/A   Clear
5:55 AM -6.3 °F -23.1 °F -13.9 °F 70% 30.45 in 10.0 mi SSW 9.2 mph - N/A   Clear
6:15 AM -6.2 °F -20.4 °F -13.9 °F 69% 30.45 in 10.0 mi SSW 6.9 mph - N/A   Clear
6:35 AM -8.0 °F -21.0 °F -15.3 °F 70% 30.45 in 10.0 mi South 5.8 mph - N/A   Clear
6:55 AM -8.1 °F -21.2 °F -15.2 °F 71% 30.45 in 10.0 mi South 5.8 mph - N/A   Clear
7:15 AM -8.3 °F - -14.8 °F 73% 30.46 in 10.0 mi Calm Calm - N/A   Clear
7:35 AM -7.6 °F - -14.6 °F 71% 30.46 in 10.0 mi Calm Calm - N/A   Clear
7:55 AM -6.7 °F -15.5 °F -14.1 °F 70% 30.46 in 10.0 mi South 3.5 mph - N/A   Clear
8:15 AM -4.7 °F -19.9 °F -12.8 °F 68% 30.46 in 10.0 mi South 8.1 mph - N/A   Clear
8:35 AM -2.9 °F -17.7 °F -11.2 °F 68% 30.46 in 10.0 mi South 8.1 mph - N/A   Clear
8:55 AM -1.3 °F -15.7 °F -9.8 °F 67% 30.46 in 10.0 mi South 8.1 mph - N/A   Clear
9:15 AM 0.3 °F -13.8 °F -8.5 °F 66% 30.46 in 10.0 mi South 8.1 mph - N/A   Clear
9:35 AM 1.8 °F -10.8 °F -7.2 °F 66% 30.47 in 10.0 mi South 6.9 mph - N/A   Clear
9:55 AM 3.6 °F -9.8 °F -6.2 °F 64% 30.47 in 10.0 mi South 8.1 mph - N/A   Clear
10:15 AM 5.4 °F -10.4 °F -4.5 °F 64% 30.46 in 10.0 mi South 11.5 mph - N/A   Mostly Cloudy
10:35 AM 6.8 °F -8.6 °F -3.5 °F 63% 30.45 in 10.0 mi South 11.5 mph - N/A   Overcast
10:55 AM 7.3 °F -9.3 °F -2.7 °F 63% 30.44 in 10.0 mi South 13.8 mph - N/A   Overcast
11:15 AM 8.4 °F -7.9 °F -1.8 °F 63% 30.43 in 10.0 mi South 13.8 mph - N/A   Overcast
11:35 AM 9.7 °F -6.3 °F -0.9 °F 62% 30.40 in 10.0 mi South 13.8 mph 17.3 mph N/A   Mostly Cloudy
11:55 AM 10.8 °F -3.6 °F -1.5 °F 58% 30.38 in 10.0 mi South 11.5 mph - N/A   Overcast
12:15 PM 11.8 °F -3.6 °F -0.9 °F 57% 30.36 in 10.0 mi South 13.8 mph 20.7 mph N/A   Overcast
12:35 PM 12.7 °F -2.5 °F 0.7 °F 59% 30.35 in 10.0 mi South 13.8 mph - N/A   Overcast
12:55 PM 12.9 °F -2.8 °F 1.4 °F 60% 30.33 in 10.0 mi SSE 15.0 mph - N/A   Mostly Cloudy
1:15 PM 13.1 °F -2.6 °F 1.6 °F 60% 30.32 in 10.0 mi SSE 15.0 mph - N/A   Overcast
1:35 PM 13.6 °F -1.9 °F 1.9 °F 60% 30.30 in 10.0 mi SSE 15.0 mph - N/A   Overcast
1:55 PM 14.5 °F 1.9 °F 3.2 °F 61% 30.31 in 10.0 mi SSE 10.4 mph - N/A   Overcast
2:15 PM 15.3 °F 0.8 °F 3.9 °F 61% 30.30 in 10.0 mi SSE 13.8 mph 20.7 mph N/A   Overcast
2:35 PM 16.0 °F 2.3 °F 4.3 °F 60% 30.29 in 10.0 mi SSE 12.7 mph 20.7 mph N/A   Overcast
2:55 PM 17.1 °F 3.0 °F 4.6 °F 58% 30.28 in 10.0 mi SSE 13.8 mph - N/A   Mostly Cloudy
3:15 PM 17.4 °F 4.1 °F 5.2 °F 59% 30.28 in 10.0 mi SSE 12.7 mph - N/A   Scattered Clouds
3:35 PM 17.6 °F 2.7 °F 5.7 °F 60% 30.27 in 10.0 mi SSE 16.1 mph - N/A   Scattered Clouds
3:55 PM 17.6 °F 3.2 °F 5.9 °F 60% 30.26 in 10.0 mi SSE 15.0 mph - N/A   Scattered Clouds
4:15 PM 18.0 °F 4.2 °F 5.9 °F 59% 30.25 in 10.0 mi SSE 13.8 mph 20.7 mph N/A   Clear
4:35 PM 17.6 °F 5.7 °F 6.1 °F 61% 30.25 in 10.0 mi SSE 10.4 mph - N/A   Clear
4:55 PM 17.1 °F 6.6 °F 6.4 °F 63% 30.26 in 10.0 mi SSE 8.1 mph - N/A   Clear
5:15 PM 16.2 °F 4.7 °F 6.4 °F 66% 30.27 in 10.0 mi SSE 9.2 mph - N/A   Clear
5:35 PM 15.4 °F 5.6 °F 5.9 °F 66% 30.28 in 10.0 mi SSE 6.9 mph - N/A   Clear
5:55 PM 14.7 °F 4.8 °F 5.9 °F 68% 30.28 in 10.0 mi SSE 6.9 mph - N/A   Clear
6:15 PM 14.4 °F 4.3 °F 5.7 °F 69% 30.28 in 10.0 mi SSE 6.9 mph - N/A   Clear
6:35 PM 13.8 °F 4.9 °F 5.7 °F 70% 30.28 in 10.0 mi SSE 5.8 mph - N/A   Clear
6:55 PM 13.3 °F 3.0 °F 5.5 °F 71% 30.28 in 10.0 mi SSE 6.9 mph - N/A   Clear
7:15 PM 13.1 °F 5.4 °F 5.7 °F 72% 30.29 in 10.0 mi SSE 4.6 mph - N/A   Clear
7:35 PM 13.3 °F 4.2 °F 5.7 °F 72% 30.29 in 10.0 mi SSE 5.8 mph - N/A   Clear
7:55 PM 13.8 °F 6.2 °F 6.4 °F 72% 30.29 in 10.0 mi SSE 4.6 mph - N/A   Clear
8:15 PM 12.6 °F 4.8 °F 5.9 °F 75% 30.29 in 10.0 mi SE 4.6 mph - N/A   Clear
8:35 PM 12.0 °F 5.9 °F 5.7 °F 76% 30.29 in 10.0 mi SE 3.5 mph - N/A   Clear
8:55 PM 11.1 °F 4.9 °F 5.4 °F 78% 30.29 in 10.0 mi SE 3.5 mph - N/A   Clear
9:15 PM 11.3 °F 5.1 °F 5.9 °F 79% 30.28 in 10.0 mi SE 3.5 mph - N/A   Clear
9:35 PM 12.7 °F 3.6 °F 7.2 °F 78% 30.28 in 10.0 mi SSE 5.8 mph - N/A   Clear
9:55 PM 13.1 °F 2.8 °F 7.5 °F 78% 30.28 in 10.0 mi SSE 6.9 mph - N/A   Clear
10:15 PM 13.8 °F 3.7 °F 8.4 °F 79% 30.28 in 10.0 mi SSE 6.9 mph - N/A   Clear
10:35 PM 14.5 °F 5.7 °F 8.4 °F 77% 30.28 in 10.0 mi SSE 5.8 mph - N/A   Clear
10:55 PM 16.3 °F 4.9 °F 9.9 °F 76% 30.27 in 10.0 mi South 9.2 mph - N/A   Clear
11:15 PM 17.6 °F 6.4 °F 10.6 °F 74% 30.28 in 10.0 mi South 9.2 mph - N/A   Clear
11:35 PM 18.7 °F 6.3 °F 11.5 °F 74% 30.28 in 10.0 mi South 11.5 mph - N/A   Clear
11:55 PM 19.2 °F 7.7 °F 11.8 °F 73% 30.28 in 10.0 mi South 10.4 mph - N/A   Clear